User: anonymous   Login
Location: Unspecified
(0.0000°N, 0.0000°E)
Time: 10:32:40
(UTC+00:00)
Language:

USA 189 - Orbit

View from above orbital plane
View from above orbital plane
View from above satellite
View from above satellite

Ground track
Ground track

The orbit data is extracted from the following two-line orbital elements,

1 29242U 06024C   18220.80416202 0.00000000  00000-0  00000-0 0    00
2 29242   8.4724  40.7754 0002996 175.1531 184.8590  1.04029861    08
Epoch (UTC): 08 August 2018 19:17:59
Eccentricity: 0.0002996
inclination: 8.4724°
perigee height: 34752 km
apogee height: 34777 km
right ascension of ascending node: 40.7754°
argument of perigee: 175.1531°
revolutions per day: 1.04029861
mean anomaly at epoch: 184.8590°
orbit number at epoch: 0

The dashed part of the orbit path shows where the satellite is in the earth's shadow,  

DLR